{"data":{"norad_id":62049,"intl_designator":"2024-216T","name":"STARLINK-32473","alt_names":[],"object_type":"PAYLOAD","status":"ACTIVE","operator":null,"country":"US","launch_date":"2024-11-21","launch_site_code":"AFETR","launch_vehicle":null,"mission":null,"orbit_class":"UNKNOWN","rcs_meters":null,"size_class":null,"mass_kg":null,"dimensions":null,"purposes":["comms"],"wikipedia_slug":null,"has_3d_model":false,"image_url":null,"decayed_at":null,"tle_current":{"epoch":"2026-05-24T12:42:56.215584Z","epoch_age_seconds":111562,"freshness":"FRESH","line1":"1 62049U 24216T   26144.52981731  .00018505  00000+0  68002-3 0  9996","line2":"2 62049  43.0000 188.0794 0001725 264.3510  95.7145 15.27593430 84319","mean_motion":15.2759343,"eccentricity":0.0001725,"inclination_deg":43,"raan_deg":188.0794,"arg_perigee_deg":264.351,"mean_anomaly_deg":95.7145,"bstar":0.00068002,"rev_number":8431,"period_min":94.265919957511,"perigee_km":481.8253344182,"apogee_km":484.19242974752,"semimajor_km":6861.1458820829,"source":"CELESTRAK","updated_at":"2026-05-25T13:38:19.527510Z"}}}